Погода в Оулу

Финляндия     65°00′42″N   25°28′32″E
темп.,
°C
ветер,
м/с
пор.,
м/с
влажн.,
%
обл.,
%
осадки,
мм/ч
давл.,
гПа
погр.,
м
27 ноября, сб
сб2723:00−6вюв359391 0.1 1000273
02:00−7в349458 0.2 1002215
05:00−9вюв239574 0.0 1004124
08:00−9вюв239667 0.0 1006111
11:00−9вюв239670 0.0 1008114
14:00−9юв229778 0.0 100998
17:00−10юв239772 0.0 101096
20:00−10юв239562 0.0 1010100
28 ноября, вс
вс2823:00−10ююв349558 0.0 1010113
02:00−10юв359568 0.0 1010123
05:00−11юв359767 0.0 1010125
08:00−11юв349765 0.0 1010122
11:00−11ююв359664 0.0 1011138
14:00−10ююв349159 0.0 1011137
17:00−11ююв359660 0.0 1011131
20:00−11ююв359560 0.0 1012125
29 ноября, пн
пн2923:00−11ююв369444 0.0 1013145
02:00−11ююв478892 0.0 1013164
05:00−11юв4892100 0.0 1013180
08:00−9ююв4990100 0.0 1013254
11:00−9юв4886100 0.0 1013259
14:00−9юв3787100 0.0 1012209
17:00−9вюв4889100 0.0 1010237
20:00−9вюв4889100 0.0 1009250
30 ноября, вт
вт3023:00−9в5108569 0.0 1007336
02:00−10всв5108923 0.0 1005295
05:00−9всв5118957 0.0 1002370
08:00−9св6128832 0.0 999482
11:00−8св61187100 0.0 997552
14:00−7ссв61186100 0.0 995558
17:00−8ссв61083100 0.0 994523
20:00−8ссв61079100 0.0 993632
1 декабря, ср
ср123:00−8с61088100 0.1 992586
02:00−8с61089100 0.2 991577
05:00−8с6992100 0.3 990517
08:00−8с5893100 0.9 990500
11:00−7ссз4793100 1.1 989438
14:00−6ссз3594100 2.3 988360
17:00−6с1395100 0.9 987197
20:00−5всв2395100 1.9 987193